Location: Silverdale
(47.6506°N, 122.6941°W)
Time: 09:23:12
(UTC+00:00)

Tiros 1 despin weight - Pass Details

Date: 10 October 2022
Orbit: 590 x 637 km, 48.2° (Epoch: 02 December)

Event Time Altitude Azimuth Distance (km) Brightness Sun altitude
Rises 02:28:17 0° 285° (WNW) 2,863 ? -10.0°
Reaches altitude 10° 02:30:37 10° 280° (W) 1,966 ? -10.4°
Maximum altitude 02:34:58 49° 206° (SSW) 799 ? -11.1°
Enters shadow 02:39:22 10° 132° (SE) 1,987 ? -11.9°
